Regional Weather Roundup
Issued by NWS

Home | Current Version | Previous Version | Text Only | Print | Product List | Glossary Off
Versions: 1 2 3 4 5 6 7 8 9 10 11 12 13 14 15 16 17 18 19 20 21 22 23 24 25 26 27 28 29 30 31 32 33 34 35 36 37 38 39 40 41 42 43 44 45 46 47 48 49 50

000
ASUS43 KMPX 051901
RWRMN
WEATHER ROUNDUP FOR MINNESOTA
NATIONAL WEATHER SERVICE TWIN CITIES/CHANHASSEN MN
200 PM CDT SUN JUL 05 2015


NOTE: "FAIR" INDICATES FEW OR NO CLOUDS BELOW 12,000 FEET WITH NO
SIGNIFICANT WEATHER AND/OR OBSTRUCTIONS TO VISIBILITY. N/A MEANS
CURRENT SKY AND/OR WEATHER CONDITIONS ARE NOT AVAILABLE.

MNZ060>063-068>070-052000-
   Twin Cities Metro

CITY           SKY/WX    TMP DP  RH WIND       PRES   REMARKS
TWIN CITIES    PTSUNNY   85  67  54 S13G21    29.89R
ST PAUL        PTSUNNY   84  69  60 S13       29.89S
CRYSTAL        PTSUNNY   86  67  52 S12G20    29.87S
BLAINE         PTSUNNY   84  68  58 SE13      29.89R
LAKEVILLE      CLOUDY    81  70  69 S8        29.91R
EDEN PRAIRIE   PTSUNNY   83  69  62 S15       29.89R
SOUTH ST PAUL  PTSUNNY   83  67  57 S10       29.90S
LAKE ELMO      FAIR      82  70  65 S16       29.91S
$$
MNZ001>005-007-008-013>017-022>024-027-028-052000-
   Northwest Minnesota

CITY           SKY/WX    TMP DP  RH WIND       PRES   REMARKS
BEMIDJI        CLOUDY    80  68  67 W13       29.81S
HALLOCK        LGT RAIN  68  66  94 CALM      29.75F
ROSEAU         TSTM      66  61  82 S9        29.80S
WARROAD        TSTM      66  63  88 W3        29.79R
THIEF RVR FALL CLOUDY    66  63  88 N8        29.75F
CROOKSTON      LGT RAIN  66  66 100 SE8       29.75R
FOSSTON        CLOUDY    72  63  73 CALM      29.80F
DETROIT LAKES  CLOUDY    84  64  51 SW8       29.81F
MOORHEAD       CLOUDY    81  72  74 W9        29.77S
PARK RAPIDS    CLOUDY    85  65  51 W9        29.81S
MAHNOMEN       CLOUDY    76  68  75 CALM      29.78F
$$
MNZ006-009>011-018-025>026-052000-
   North Central Minnesota

CITY           SKY/WX    TMP DP  RH WIND       PRES   REMARKS
BAUDETTE       LGT RAIN  70  67  90 S10       29.77R FOG
FLAG ISLAND    HVY RAIN  66  64  94 SW8       29.77S
INTL FALLS     CLOUDY    78  68  71 VRB6      29.76F
WASKISH        CLOUDY    75  70  83 SW6       29.80R
BIG FORK       CLOUDY    82  70  65 SW12G18   29.79F
LONGVILLE      CLOUDY    82  66  57 S9        29.82S
GRAND RAPIDS   PTSUNNY   82  66  57 S13       29.82S
CRANE LAKE     CLOUDY    79  66  65 S8        29.82F
ORR            CLOUDY    81  64  57 S6        29.78F
COOK           CLOUDY    81  66  61 S6        29.82F
WALKER         FAIR      83  67  59 SW9       29.80F
$$
MNZ012-019>021-037-052000-
   Northeast Minnesota

CITY           SKY/WX    TMP DP  RH WIND       PRES   REMARKS
DULUTH         PTSUNNY   82  65  56 S18       29.86F
ELY            PTSUNNY   81  63  54 SW14      29.84F
HIBBING        PTSUNNY   83  66  56 S12       29.82F
DULUTH HARBOR  PTSUNNY   84  68  58 S12       29.85F
SILVER BAY     MOSUNNY   79  63  57 S10G16    29.87R
GRAND MARAIS     N/A     56  49  77 NE6       29.89F
G MARAIS ARPRT SUNNY     73  59  60 S9G17     29.93S
$$
MNZ029>031-032-039>041-046>048-054>057-064-052000-
   West Central Minnesota

CITY           SKY/WX    TMP DP  RH WIND       PRES   REMARKS
FERGUS FALLS   CLOUDY    84  68  58 S10       29.76F
WHEATON        PTSUNNY   86  66  51 SW14      29.77F
MORRIS         PTSUNNY   86  68  54 S12       29.79S
ALEXANDRIA     PTSUNNY   83  65  54 S10       29.83F
ELBOW LAKE     FAIR      82  68  63 S12       29.78F
WADENA         PTSUNNY   84  64  51 S12G18    29.81F
GLENWOOD       MOSUNNY   84  66  54 S13       29.83F
APPLETON       PTSUNNY   91  66  43 S10G16    29.78F HX  94
BENSON         MOSUNNY   84  66  54 S10       29.80F
ORTONVILLE     PTSUNNY   90  64  43 S9G16     29.78S HX  91
MADISON        PTSUNNY   90  64  43 SW10      29.79F HX  91
WILLMAR          N/A     84  70  61 S7        29.84S
$$
MNZ033>034-036-042>043-049>051-058-059-052000-
   Central Minnesota

CITY           SKY/WX    TMP DP  RH WIND       PRES   REMARKS
ST CLOUD       MOSUNNY   84  68  58 S15       29.84F
SAUK CENTRE    FAIR      83  68  59 S12G18    29.83F
PAYNESVILLE    SUNNY     82  67  60 E13       29.84F
AITKIN         PTSUNNY   82  70  65 S14       29.83F
PINE RIVER       N/A     84  68  58 S12G18    29.85S
BRAINERD       PTSUNNY   85  66  53 S15G21    29.84S
STAPLES        PTSUNNY   84  64  51 S13       29.82F
LONG PRAIRIE   FAIR      82  68  61 SE13      29.83F
LITTLE FALLS   MOSUNNY   82  63  51 SE9       29.83F
LITCHFIELD     SUNNY     84  72  65 SE8       29.85F
BUFFALO        PTSUNNY   82  66  58 SE13G18   29.88F
MAPLE LAKE     MOSUNNY   83  71  68 SE10G17   29.87F
$$
MNZ037-044-045-052-053-052000-
   East Central Minnesota

CITY           SKY/WX    TMP DP  RH WIND       PRES   REMARKS
PRINCETON      MOSUNNY   84  68  58 S10       29.86F
MORA           MOSUNNY   79  64  61 S15       29.88F
CAMBRIDGE      MOSUNNY   84  68  58 S6        29.86F
RUSH CITY      MOSUNNY   82  67  60 S9        29.88F
MOOSE LAKE     MOSUNNY   81  64  57 S14       29.85S
HINCKLEY       FAIR      81  68  65 S15       29.88S
CLOQUET        PTSUNNY   81  64  57 SE9G17    29.86F
MCGREGOR       MOSUNNY   81  68  65 S9G18     29.86R
$$
MNZ071>073-080-081-089-090-097-098-052000-
   Southwest Minnesota

CITY           SKY/WX    TMP DP  RH WIND       PRES   REMARKS
MONTEVIDEO     MOSUNNY   88  70  55 SW9       29.81F HX  92
GRANITE FALLS  MOSUNNY   85  69  58 SE14      29.83S
CANBY          PTSUNNY   87  66  49 S7        29.80F
MARSHALL       MOSUNNY   86  64  48 S12       29.82
REDWOOD FALLS  MOSUNNY   88  65  46 S14G23    29.83S HX  90
OLIVIA         MOSUNNY   82  64  54 S10G16    29.83F
PIPESTONE      SUNNY     84  64  51 SW13      29.84R
WINDOM         PTSUNNY   84  68  58 S10G17    29.85F
WORTHINGTON    MOSUNNY   84  66  54 S18       29.85S
JACKSON        PTSUNNY   86  68  54 S15G21    29.88S
TRACY          MOSUNNY   87  67  52 SW12      29.84S
SLAYTON        MOSUNNY   84  64  50 S7        29.85S
$$
MNZ065>067-074>077-082>085-091>093-052000-
   South Central Minnesota

CITY           SKY/WX    TMP DP  RH WIND       PRES   REMARKS
MANKATO        PTSUNNY   82  68  61 S14G23    29.89R
NEW ULM        MOSUNNY   82  70  65 S12       29.85F
FAIRMONT       PTSUNNY   81  66  61 S13       29.88S
GLENCOE        PTSUNNY   85  72  65 SE8       29.87F HX  90
FARIBAULT      PTSUNNY   84  70  61 S16       29.91S
OWATONNA       PTSUNNY   82  66  57 S13G18    29.92S
WASECA         PTSUNNY   82  68  61 S18       29.91F
ALBERT LEA     PTSUNNY   82  66  57 S13       29.92F
$$
MNZ078>079-086>088-094>096-052000-
   Southeast Minnesota

CITY           SKY/WX    TMP DP  RH WIND       PRES   REMARKS
ROCHESTER      CLOUDY    80  66  62 S14       29.95F
RED WING       CLOUDY    84  64  51 S6G16     29.91R
STANTON        CLOUDY    82  68  61 S9G20     29.90R
DODGE CENTER   CLOUDY    81  68  65 S20       29.94S
WINONA         CLOUDY    81  63  54 S7        29.94F
AUSTIN         CLOUDY    82  66  57 S14       29.94F
PRESTON        CLOUDY    80  66  63 S16       29.97F
$$
ABBREVIATIONS USED IN REMARKS
   TC - TEMPERATURES IN CELSIUS
  WCI - WIND CHILL INDEX
   HX - HEAT INDEX
  VSB - VISIBILITY
$$


USA.gov is the U.S. government's official web portal to all federal, state and local government web resources and services.